Hourly Data Report for September 22, 2019

SAINT JOHN A
NEW BRUNSWICK
Current Station Operator: NAVCAN

45°18'58.000" N
65°53'24.000" W
108.80 m
8104901
71609
YSJ

Download Data

Hourly Data (September 2019)
Hourly Data Report for September 22, 2019
TIME
LST
Temp Definition
°C
Dew Point Definition
°C
Rel Hum Definition
%
Precip. Amount Definition
mm

Wind Dir Definition
10's deg

Wind Spd Definition
km/h
Visibility Definition
km
Stn Press Definition
kPa
Hmdx Definition


Wind Chill Definition


Weather Definition


00:00 6.4 6.4 100   3 4 24.1 100.79     LegendNANA
01:00 5.0 4.5 97   36 2 24.1 100.83     LegendNANA
02:00 4.5 4.5 100   4 4 24.1 100.82     Clear
03:00 3.4 3.3 99   4 4 24.1 100.77     LegendNANA
04:00 3.7 3.7 100   6 5 24.1 100.76     LegendNANA
05:00 4.3 4.2 100   36 2 24.1 100.75     Clear
06:00 4.0 4.0 100   5 4 24.1 100.75     LegendNANA
07:00 6.1 5.6 97   36 2 0.8 100.74     Fog
08:00 11.7 11.7 100   21 6 24.1 100.69     Mostly Cloudy
09:00 17.4 14.3 82   20 16 24.1 100.66     LegendNANA
10:00 18.7 14.4 76   21 18 24.1 100.65     LegendNANA
11:00 20.5 14.9 70   22 23 24.1 100.61     Mostly Cloudy
12:00 20.2 14.4 69   20 28 24.1 100.53     LegendNANA
13:00 20.2 13.9 67   21 32 24.1 100.43     LegendNANA
14:00 19.6 13.9 69   21 24 24.1 100.38     Mostly Cloudy
15:00 18.6 13.8 74   22 32 24.1 100.29     LegendNANA
16:00 18.0 13.7 76   21 34 24.1 100.22     LegendNANA
17:00 16.5 13.5 83   21 31 24.1 100.15     Mostly Cloudy
18:00 15.3 13.2 87   22 20 24.1 100.13     LegendNANA
19:00 14.4 13.1 92   22 20 24.1 100.09     LegendNANA
20:00 14.1 13.3 95   21 23 24.1 100.04     Mostly Cloudy
21:00 13.8 13.6 99   21 21 24.1 100.00     LegendNANA
22:00 14.2 14.1 99   20 19 9.7 99.91     Fog
23:00                      

Notes on Data Quality.

Legend

  • E = Estimated
  • M = Missing
  • NA = Not Available*
  • [empty] = Indicates an unobserved value
Date modified: